Location: Newark
(58.8333°N, 23.5833°E)
Time: 17:50:10
(UTC+00:00)

N. Korean satellite - Visible Passes

Search period start: 23 October 2019 00:00
Search period end: 02 November 2019 00:00
Orbit: 455 x 508 km, 97.2° (Epoch: 22 October)

Date Brightness Start Highest point End Pass type
(mag) Time Alt. Az. Time Alt. Az. Time Alt. Az.
23 Oct 9.8 03:29:34 10° NE 03:32:10 18° E 03:34:47 10° SE visible
23 Oct 8.2 15:46:42 10° S 15:49:58 39° W 15:53:19 10° NNW visible
24 Oct 10.4 03:05:19 10° ENE 03:06:34 11° E 03:07:49 10° ESE visible
24 Oct 6.9 04:36:59 10° NNE 04:40:38 75° ESE 04:44:17 10° S visible
24 Oct 10.6 16:58:35 10° W 16:58:42 10° W 16:58:50 10° W visible
25 Oct 8.1 04:11:45 10° NNE 04:15:15 43° E 04:18:46 10° S visible
25 Oct 9.9 16:30:45 10° SW 16:33:04 17° W 16:35:26 10° NW visible
26 Oct 9.1 03:46:40 10° NE 03:49:47 26° E 03:52:54 10° SSE visible
26 Oct 9.0 16:04:29 10° SSW 16:07:31 27° W 16:10:36 10° NNW visible
27 Oct 10.0 03:21:51 10° NE 03:24:14 16° E 03:26:36 10° SE visible
27 Oct 7.8 15:38:40 10° S 15:42:02 47° W 15:45:30 10° NNW visible
28 Oct 7.2 04:29:06 10° NNE 04:32:45 63° ESE 04:36:25 10° S visible
28 Oct 10.2 16:49:17 10° WSW 16:50:41 12° W 16:52:08 10° WNW visible
29 Oct 8.4 04:03:53 10° NNE 04:07:19 37° E 04:10:47 10° SSE visible
29 Oct 9.6 16:22:27 10° SW 16:25:05 20° W 16:27:45 10° NW visible
30 Oct 9.4 03:38:51 10° NE 03:41:49 23° E 03:44:48 10° SE visible
30 Oct 8.6 15:56:21 10° SSW 15:59:32 32° W 16:02:48 10° NNW visible
31 Oct 10.1 03:14:11 10° NE 03:16:14 14° E 03:18:18 10° ESE visible
31 Oct 6.6 04:46:29 10° NNE 04:50:11 88° WNW 04:53:54 10° SSW visible
31 Oct 7.4 15:30:37 10° S 15:34:05 56° WSW 15:37:38 10° NNW visible
01 Nov 7.5 04:21:10 10° NNE 04:24:48 54° E 04:28:28 10° S visible
01 Nov 10.0 16:40:42 10° WSW 16:42:39 14° W 16:44:39 10° NW visible
